星链-1857 (STARLINK-1857 )

导读 | 星芒AI

STARLINK-1857 是 SpaceX Starlink 项目中的一颗低轨道通信卫星,属于第 18 批部署的星链卫星群。该卫星于 2022 年发射,运行在约 550 公里的高度,旨在为全球用户提供高速互联网服务。作为星链网络的一部分,STARLINK-1857 采用先进通信技术,支持宽带连接,尤其服务于偏远地区。其设计注重可持续性,具备自动避撞功能,以减少太空碎片风险。

基本信息
目录编号:
47144
目录名称:
STARLINK-1857
国际标识:
2020-088Y
轨道中心:
EARTH
卫星名称:
星链-1857
卫星全名:
星链-1857 (STARLINK-1857 )
卫星状态:
已陨落 最后检测时间 2025-02-22
发射日期:
2020-11-25 UTC
国别 :
美国 (US)
星等 :
--
轨道信息
数据来源 国际轨道数据
星历时间: 2025-02-22T02:40:32+0800
轨道信息已过期249天
半长轴: 6538.385km
偏心率: 0.0002831
轨道倾角: 53.022°
近地点辐角 307.086°
升交点赤经 151.385°
平近点角 194.921°
近地点: 158.398km
远地点: 162.102km
周期: 87.693分钟
每日圈数: 16.420904
详细信息
固有亮度:
5
最大亮度:
2.5
卫星平台:
Starlink V1.0
覆盖范围:
全球
运营商:
太空探索技术公司
运营商所在国:
美国
制造商(研发单位):
太空探索技术公司
制造商所在国:
美国
使用方式:
暂无
卫星简介
星链(Starlink)计划是由太空探索技术公司(SpaceX)提出的一个巨型低轨卫星互联网星座项目,计划在2019年至2024年间在太空搭建由约1.2万颗卫星组成的“星链”网络,其中1584颗将部署在地球上空550千米处的近地轨道,并从2020年开始工作。该卫星仍在工作。